Jackson, MS

10:29 PM CDT on May 23, 2018 (GMT -0500)
Jackson-Evers International

Weather History for KJAN - February, 2013

Change the Weather History Date:

Monday, February 11, 2013

  Actual Average Record
Temperature  
Mean Temperature 56 °F 48 °F  
Max Temperature 61 °F 60 °F 84 °F (1922)
Min Temperature 51 °F 38 °F 18 °F (1973)
Degree Days  
Heating Degree Days 9 17  
Month to date heating degree days 136 193  
Since 1 July heating degree days 1462 1745  
Cooling Degree Days 0 0  
Month to date cooling degree days 0 0  
Year to date cooling degree days 14 4  
Growing Degree Days 6 (Base 50)    
Moisture  
Dew Point 53 °F    
Average Humidity 92    
Maximum Humidity 100    
Minimum Humidity 83    
Precipitation  
Precipitation 0.52 in 0.17 in 2.45 in (1965)
Month to date precipitation 3.14 1.91  
Year to date precipitation 11.72 6.88  
Sea Level Pressure  
Sea Level Pressure 30.09 in    
Wind  
Wind Speed 5 mph (NNE)    
Max Wind Speed 15 mph    
Max Gust Speed 17 mph    
Visibility 6 miles    
Events Fog , Rain , Thunderstorm    
T = Trace of Precipitation, MM = Missing Value Source: NWS Daily Summary

Daily Weather History Graph

Daily Weather History Graph

Search for Another Location

Airport or City:

Astronomy

Feb. 11, 2013 Rise Set
Actual Time 6:46 AM CST 5:43 PM CST
Civil Twilight 6:21 AM CST 6:08 PM CST
Nautical Twilight 5:52 AM CST 6:37 PM CST
Astronomical Twilight 5:23 AM CST 7:05 PM CST
Moon 7:19 AM CST (2/11) 7:29 PM CST (2/11)
Length of Visible Light 11h 47m
Length of Day
10h 56m
Waxing Crescent, 3% of the Moon is Illuminated
Feb 11
Waxing Crescent
Feb 17
First Quarter
Feb 25
Full
Mar 4
Last Quarter
Mar 11
New

Hourly Weather History & Observations

Time (CST) Temp. Dew Point Humidity Pressure Visibility Wind Dir Wind Speed Gust Speed Precip Events Conditions
12:04 AM 60.8 °F 60.8 °F 100% 30.06 in 2.0 mi SSW 6.9 mph - 0.02 in Rain Light Rain
12:06 AM 60.8 °F 60.8 °F 100% 30.06 in 3.0 mi SSW 8.1 mph - 0.03 in Rain Light Rain
12:10 AM 60.8 °F 60.8 °F 100% 30.05 in 4.0 mi SSW 8.1 mph - 0.03 in Rain Light Rain
12:27 AM 60.8 °F 60.8 °F 100% 30.03 in 5.0 mi South 4.6 mph - 0.04 in Rain Rain
12:54 AM 60.1 °F 59.0 °F 96% 30.00 in 8.0 mi East 3.5 mph - 0.06 in   Scattered Clouds
1:11 AM 57.2 °F 57.2 °F 100% 30.00 in 1.2 mi NE 3.5 mph - N/A   Clear
1:16 AM 57.2 °F 57.2 °F 100% 30.00 in 0.5 mi NNE 3.5 mph - N/A Fog Fog
1:27 AM 57.2 °F 57.2 °F 100% 30.00 in 0.5 mi NNW 4.6 mph - N/A Fog Fog
1:54 AM 59.0 °F 57.9 °F 96% 30.00 in 0.8 mi NNW 8.1 mph - N/A   Overcast
2:01 AM 59.0 °F 57.2 °F 94% 30.00 in 2.0 mi NNW 5.8 mph - N/A   Mostly Cloudy
2:09 AM 57.2 °F 57.2 °F 100% 30.01 in 10.0 mi NNW 4.6 mph - N/A   Scattered Clouds
2:34 AM 57.2 °F 55.4 °F 94% 30.02 in 1.8 mi NNE 4.6 mph - N/A   Scattered Clouds
2:39 AM 57.2 °F 55.4 °F 94% 30.02 in 2.0 mi NE 3.5 mph - N/A   Mostly Cloudy
2:47 AM 57.2 °F 57.2 °F 100% 30.02 in 10.0 mi NNE 3.5 mph - N/A   Mostly Cloudy
2:54 AM 57.2 °F 57.2 °F 100% 30.02 in 3.0 mi Calm Calm - N/A   Overcast
2:56 AM 57.2 °F 57.2 °F 100% 30.02 in 1.5 mi Calm Calm - N/A   Overcast
3:06 AM 57.2 °F 57.2 °F 100% 30.03 in 0.5 mi Calm Calm - N/A Fog Fog
3:12 AM 57.2 °F 55.4 °F 94% 30.03 in 0.2 mi Calm Calm - N/A Fog Fog
3:33 AM 55.4 °F 55.4 °F 100% 30.04 in 0.5 mi Calm Calm - N/A Fog Fog
3:54 AM 55.0 °F 54.0 °F 96% 30.08 in 0.8 mi SW 4.6 mph - 0.00 in Rain Light Rain
3:58 AM 55.4 °F 55.4 °F 100% 30.09 in 1.0 mi WSW 4.6 mph - 0.00 in Rain Light Rain
4:12 AM 57.2 °F 57.2 °F 100% 30.08 in 2.0 mi Calm Calm - 0.02 in Rain Rain
4:23 AM 57.2 °F 57.2 °F 100% 30.07 in 1.2 mi Calm Calm - 0.04 in Rain Light Rain
4:31 AM 55.4 °F 55.4 °F 100% 30.06 in 1.0 mi North 3.5 mph - 0.04 in   Overcast
4:33 AM 57.2 °F 55.4 °F 94% 30.06 in 0.8 mi North 3.5 mph - 0.04 in   Overcast
4:49 AM 57.2 °F 55.4 °F 94% 30.07 in 2.5 mi Calm Calm - 0.04 in   Overcast
4:54 AM 57.0 °F 55.9 °F 96% 30.07 in 9.0 mi Calm Calm - 0.04 in   Overcast
5:54 AM 55.9 °F 55.0 °F 97% 30.09 in 10.0 mi North 5.8 mph - N/A   Overcast
6:54 AM 55.9 °F 51.1 °F 84% 30.12 in 10.0 mi North 5.8 mph - 0.02 in   Overcast
7:54 AM 55.0 °F 48.9 °F 80% 30.14 in 10.0 mi NE 4.6 mph - 0.00 in Rain Light Rain
8:54 AM 53.1 °F 50.0 °F 89% 30.17 in 4.0 mi ENE 4.6 mph - 0.09 in Rain Rain
9:54 AM 53.1 °F 48.9 °F 86% 30.20 in 8.0 mi East 4.6 mph - 0.09 in Rain Light Rain
10:54 AM 52.0 °F 48.9 °F 89% 30.19 in 4.0 mi East 3.5 mph - 0.07 in Rain Rain
11:54 AM 51.1 °F 48.9 °F 92% 30.15 in 6.0 mi NNE 8.1 mph - 0.08 in Rain Light Rain
12:54 PM 52.0 °F 50.0 °F 93% 30.12 in 10.0 mi East 4.6 mph - 0.02 in Rain Light Rain
1:54 PM 53.1 °F 48.9 °F 86% 30.08 in 10.0 mi East 8.1 mph - 0.00 in Rain Light Rain
2:17 PM 53.6 °F 48.2 °F 82% 30.11 in 10.0 mi Calm Calm - 0.00 in Rain , Thunderstorm Light Thunderstorms and Rain
2:34 PM 53.6 °F 48.2 °F 82% 30.09 in 10.0 mi ENE 4.6 mph - 0.00 in   Overcast
2:54 PM 52.0 °F 48.9 °F 89% 30.15 in 10.0 mi West 6.9 mph - 0.00 in Rain Light Rain
3:54 PM 52.0 °F 50.0 °F 93% 30.09 in 7.0 mi Variable 3.5 mph - 0.05 in Rain Light Rain
4:54 PM 52.0 °F 48.9 °F 89% 30.09 in 10.0 mi Calm Calm - 0.06 in   Scattered Clouds
5:21 PM 51.8 °F 48.2 °F 88% 30.10 in 10.0 mi North 4.6 mph - N/A   Overcast
5:54 PM 51.1 °F 48.9 °F 92% 30.14 in 8.0 mi NE 5.8 mph - 0.01 in Rain Light Rain
6:29 PM 51.8 °F 48.2 °F 88% 30.13 in 10.0 mi Calm Calm - 0.04 in   Mostly Cloudy
6:54 PM 51.1 °F 48.9 °F 92% 30.16 in 10.0 mi WNW 5.8 mph - 0.04 in   Mostly Cloudy
7:54 PM 51.1 °F 48.9 °F 92% 30.15 in 10.0 mi North 3.5 mph - 0.04 in   Overcast
8:54 PM 51.1 °F 48.9 °F 92% 30.14 in 10.0 mi NNE 4.6 mph - 0.01 in Rain Light Rain
9:54 PM 51.1 °F 48.9 °F 92% 30.14 in 10.0 mi Calm Calm - 0.00 in   Overcast
10:54 PM 50.0 °F 48.0 °F 93% 30.13 in 10.0 mi North 4.6 mph - 0.02 in   Overcast
11:54 PM 50.0 °F 48.9 °F 96% 30.12 in 6.0 mi NE 3.5 mph - 0.05 in Rain Light Rain